Lapse_Rate
0.9 1.1 1.3 1.3 0.3 0.6 0.5 0.5 0.5 0.1 0.3 0.6 0.4 -0.0 -0.2 -0.8 -0.8 -0.3 -0.3 -0.0 0.1 -0.5
0.1 0.1 0.7 0.5 0.4 0.6 0.7 1.0 0.3 0.5 0.3 0.1 -0.1 -0.0 -0.4 -0.6 -0.3 -0.2 -0.1 -0.2 -0.3 -0.6
0.2 0.3 0.5 0.4 0.6 0.6 0.6 1.0 0.6 0.7 0.8 0.4 0.2 0.1 0.3 0.4 0.4 0.3 -0.2 -0.2 -0.1 -0.3
0.9 1.0 0.6 0.4 0.5 0.6 0.9 0.6 0.8 0.9 0.7 0.7 0.9 0.8 0.7 0.7 1.0 1.2 1.6 1.6 1.0 0.3
1.0 0.9 0.9 0.7 0.9 0.7 0.9 1.1 1.1 0.8 0.8 1.0 1.3 1.2 2.2 2.3 2.0 1.9 2.1 2.2 2.0 1.7
0.7 1.0 1.1 0.9 0.8 0.9 1.2 1.3 1.5 1.7 1.4 1.4 1.5 1.8 2.3 2.1 2.1 1.9 1.3 1.3 1.3 1.2
0.0 0.4 0.2 0.1 0.2 0.8 1.4 1.5 1.7 1.8 1.6 2.1 2.0 1.9 2.1 1.9 1.5 1.3 2.2 1.0 0.7 0.8
-0.6 -0.4 -0.3 -0.0 0.1 0.5 1.0 1.4 1.6 2.0 1.8 2.0 1.9 2.1 1.0 1.4 1.3 1.4 1.8 1.4 1.3 0.6
-0.4 -0.4 -0.9 -0.8 -1.0 -0.7 -0.1 0.4 0.8 1.1 1.6 1.6 1.5 1.7 1.5 1.5 1.2 1.8 2.5 2.2 2.0 1.9
-0.3 -0.3 -0.6 -1.0 -1.4 -1.2 -0.6 0.2 0.2 0.7 0.8 0.9 1.0 2.4 2.1 1.5 1.6 2.3 2.7 2.8 2.8 2.3
-1.7 -0.7 -0.1 1.9 0.8 0.6 0.7 0.6 0.9 1.0 1.4 1.7 2.3 2.6 2.3 1.9 1.9 2.6 2.6 2.3 2.0 1.4
1.0 1.7 2.1 2.5 2.4 1.9 1.3 1.1 1.3 1.8 2.3 2.9 2.9 3.4 3.2 2.6 2.6 2.5 2.3 2.2 2.0 2.0
2.0 2.2 2.9 2.7 2.9 1.8 1.6 1.4 1.9 2.0 2.5 3.7 3.9 4.3 4.1 3.0 2.7 2.4 2.8 3.4 3.8 3.7
2.4 2.4 2.9 2.8 1.9 1.1 1.6 2.4 1.6 1.1 1.1 2.4 4.3 4.6 4.5 3.9 3.0 2.9 3.3 3.8 4.3 4.1
Wind_Speed
2 2 4 5 4 4 4 3 4 5 5 5 8 6 4 2 3 3 3 4 3 2
5 6 6 6 4 4 4 3 5 7 5 6 5 5 5 3 4 4 3 4 4 3
6 6 4 4 6 5 4 6 5 6 6 6 5 5 4 3 3 4 3 3 4 3
2 3 3 5 5 6 4 6 7 7 6 6 6 6 5 5 5 5 3 2 4 5
1 1 4 5 6 5 6 5 5 5 6 6 5 5 4 4 5 6 5 4 4 4
2 1 3 4 4 4 4 4 5 6 7 7 7 6 5 6 6 6 6 5 5 5
3 3 3 3 2 3 4 5 6 5 5 5 7 7 7 8 7 7 6 5 6 5
3 3 2 1 1 3 5 5 5 5 5 6 7 6 10 8 8 7 6 5 5 4
5 4 3 3 3 4 4 5 5 6 7 7 5 15 14 12 8 7 7 7 7 8
5 3 2 3 5 5 4 5 6 6 7 6 6 14 14 15 7 8 7 8 7 6
4 3 3 3 4 4 3 5 5 6 7 7 6 14 15 15 7 7 7 7 6 6
1 3 2 2 3 3 4 4 3 4 7 7 7 15 16 12 7 8 7 7 7 6
2 3 2 3 4 2 3 4 4 5 4 8 7 14 14 11 6 7 6 5 5 10
3 3 4 3 2 4 5 5 4 5 4 5 6 9 13 15 6 6 5 5 4 4
Wind_Direction
197 216 206 202 192 200 210 198 182 203 197 201 173 160 150 117 125 130 130 135 135 123
192 195 213 211 192 195 201 207 186 193 190 190 182 163 157 149 149 140 138 131 129 117
210 213 211 176 217 217 210 206 182 190 177 171 171 169 154 142 136 128 138 131 116 102
235 208 183 209 227 222 200 197 196 187 180 183 173 166 152 144 141 135 129 106 118 110
7 177 214 229 240 220 221 197 196 175 173 164 155 146 152 150 142 135 123 113 102 99
10 331 264 259 255 226 216 204 184 173 174 166 160 149 132 118 106 93 94 93 90 80
348 311 291 274 235 223 197 186 184 176 164 148 135 126 118 114 105 90 90 88 94 81
334 329 356 18 150 157 177 165 147 129 113 125 124 133 126 119 110 118 94 66 67 80
10 22 36 54 64 83 91 90 100 107 120 121 111 127 127 126 126 120 117 109 83 65
2 17 65 112 105 103 97 102 94 97 104 96 114 133 134 129 121 125 123 124 119 108
22 38 41 58 87 109 102 111 117 112 111 121 133 141 135 121 117 116 117 122 112 106
72 81 65 105 111 99 112 114 115 120 123 125 143 149 143 125 122 116 114 113 117 126
118 122 145 146 143 97 93 98 109 103 117 147 146 158 149 124 120 117 118 112 131 125
140 140 147 130 86 102 105 107 89 93 82 94 128 145 146 137 133 134 130 132 137 147